| time (UTC) | temp F | wind direction | speed knots | gust knots | rain 1hr in | rain 24hr in | rain mn in | humidity % | barometer mb |
| 20260503021156 | 47 | 0.0 | 0.0 | 0.00 | 0.00 | 0.00 | 84 | 1019.5 | |
| 20260503020117 | 47 | 0.0 | 0.0 | 0.00 | 0.00 | 0.00 | 83 | 1019.6 | |
| 20260503015119 | 48 | 0.0 | 0.0 | 0.00 | 0.00 | 0.00 | 83 | 1019.5 | |
| 20260503014118 | 48 | 0.0 | 0.0 | 0.00 | 0.00 | 0.00 | 82 | 1019.5 | |
| 20260503013118 | 49 | 0.0 | 0.9 | 0.00 | 0.00 | 0.00 | 82 | 1019.6 | |
| 20260503012143 | 49 | 0.0 | 0.9 | 0.00 | 0.00 | 0.00 | 83 | 1019.6 | |
| 20260503011118 | 49 | 0.0 | 0.0 | 0.00 | 0.00 | 0.00 | 82 | 1019.7 | |
| 20260503010116 | 49 | 0.0 | 0.0 | 0.00 | 0.00 | 0.00 | 82 | 1019.8 | |
| 20260503005118 | 49 | 0.0 | 0.0 | 0.00 | 0.00 | 0.00 | 82 | 1019.9 | |
| 20260503004116 | 49 | 0.0 | 0.0 | 0.00 | 0.00 | 0.00 | 82 | 1020.0 | |
| 20260503003117 | 49 | 0.0 | 0.0 | 0.00 | 0.00 | 0.00 | 82 | 1020.2 | |
| 20260503002117 | 49 | 0.0 | 0.0 | 0.00 | 0.00 | 0.00 | 81 | 1020.1 | |
| 20260503001123 | 50 | 0.0 | 0.0 | 0.00 | 0.00 | 0.00 | 81 | 1020.2 | |
| 20260503000118 | 50 | 0.0 | 0.0 | 0.00 | 0.00 | 0.00 | 80 | 1020.4 | |
| 20260502235118 | 50 | 0.0 | 0.0 | 0.00 | 0.00 | 0.00 | 80 | 1020.4 | |
| 20260502234118 | 51 | 0.0 | 0.0 | 0.00 | 0.00 | 0.00 | 79 | 1020.4 | |
| 20260502233116 | 51 | 0.0 | 0.0 | 0.00 | 0.00 | 0.00 | 79 | 1020.6 | |
| 20260502232118 | 51 | 0.0 | 0.0 | 0.00 | 0.00 | 0.00 | 79 | 1020.6 | |
| 20260502231118 | 51 | 0.0 | 0.0 | 0.00 | 0.00 | 0.00 | 78 | 1020.7 | |
| 20260502230118 | 51 | 0.0 | 0.0 | 0.00 | 0.00 | 0.00 | 79 | 1020.7 | |
| 20260502225117 | 52 | 0.0 | 0.0 | 0.00 | 0.00 | 0.00 | 78 | 1020.8 | |
| 20260502224138 | 52 | 0.0 | 0.0 | 0.00 | 0.00 | 0.00 | 78 | 1020.8 | |
| 20260502223154 | 52 | 0.0 | 0.0 | 0.00 | 0.00 | 0.00 | 77 | 1020.9 | |
| 20260502222116 | 52 | 0.0 | 0.0 | 0.00 | 0.00 | 0.00 | 78 | 1020.9 | |
| 20260502221239 | 52 | 0.0 | 0.0 | 0.00 | 0.00 | 0.00 | 78 | 1020.9 | |
| 20260502221018 | 53 | 0.0 | 0.0 | 0.00 | 0.00 | 0.00 | 77 | 1021.0 | |
| 20260502220059 | 53 | 0.0 | 0.0 | 0.00 | 0.00 | 0.00 | 76 | 1021.0 | |
| 20260502215837 | 53 | 0.0 | 0.0 | 0.00 | 0.00 | 0.00 | 76 | 1021.0 | |
| 20260502214820 | 53 | 0.0 | 0.0 | 0.00 | 0.00 | 0.00 | 76 | 1021.0 | |
| 20260502213824 | 54 | 0.0 | 0.0 | 0.00 | 0.00 | 0.00 | 74 | 1021.0 | |
| 20260502212817 | 54 | 0.0 | 0.0 | 0.00 | 0.00 | 0.00 | 75 | 1020.9 | |
| 20260502211819 | 54 | 0.0 | 0.0 | 0.00 | 0.00 | 0.00 | 75 | 1021.0 | |
| 20260502210817 | 54 | 0.0 | 0.0 | 0.00 | 0.00 | 0.00 | 74 | 1021.0 | |
| 20260502205817 | 54 | 0.0 | 0.0 | 0.00 | 0.00 | 0.00 | 74 | 1021.0 | |
| 20260502204817 | 55 | 0.0 | 0.0 | 0.00 | 0.00 | 0.00 | 74 | 1021.1 | |
| 20260502203820 | 55 | 0.0 | 0.0 | 0.00 | 0.00 | 0.00 | 73 | 1021.1 | |
| 20260502202824 | 55 | 0.0 | 0.0 | 0.00 | 0.00 | 0.00 | 73 | 1021.1 | |
| 20260502201855 | 56 | 0.0 | 0.0 | 0.00 | 0.00 | 0.00 | 72 | 1021.1 | |
| 20260502200819 | 56 | 0.0 | 0.0 | 0.00 | 0.00 | 0.00 | 71 | 1021.2 | |
| 20260502195837 | 57 | 0.0 | 0.0 | 0.00 | 0.00 | 0.00 | 70 | 1021.1 | |
| 20260502194818 | 58 | 0.0 | 0.0 | 0.00 | 0.00 | 0.00 | 69 | 1021.2 | |
| 20260502193817 | 58 | 0.0 | 0.0 | 0.00 | 0.00 | 0.00 | 68 | 1021.1 | |
| 20260502192839 | 59 | 0.0 | 0.0 | 0.00 | 0.00 | 0.00 | 66 | 1021.0 | |
| 20260502191855 | 60 | 0.0 | 0.0 | 0.00 | 0.00 | 0.00 | 65 | 1020.9 | |
| 20260502190819 | 61 | 0.0 | 0.0 | 0.00 | 0.00 | 0.00 | 63 | 1020.8 | |
| 20260502185819 | 62 | 0.0 | 0.0 | 0.00 | 0.00 | 0.00 | 61 | 1020.8 | |
| 20260502184818 | 63 | 0.0 | 0.0 | 0.00 | 0.00 | 0.00 | 58 | 1020.8 | |
| 20260502183817 | 64 | 0.0 | 0.0 | 0.00 | 0.00 | 0.00 | 56 | 1020.7 | |
| 20260502182817 | 65 | 0.0 | 0.0 | 0.00 | 0.00 | 0.00 | 53 | 1020.5 | |
| 20260502181819 | 66 | 0.0 | 0.0 | 0.00 | 0.00 | 0.00 | 51 | 1020.5 | |
| 20260502180855 | 67 | 0.0 | 0.0 | 0.00 | 0.00 | 0.00 | 49 | 1020.4 | |
| 20260502163839 | 72 | 203 | 5.2 | 7.8 | 0.00 | 0.00 | 0.00 | 37 | 1020.1 |
| 20260502162856 | 73 | 225 | 5.2 | 6.1 | 0.00 | 0.00 | 0.00 | 37 | 1020.2 |
| 20260502161817 | 73 | 248 | 4.3 | 7.0 | 0.00 | 0.00 | 0.00 | 37 | 1020.3 |
| 20260502160837 | 73 | 225 | 6.1 | 10.4 | 0.00 | 0.00 | 0.00 | 36 | 1020.3 |
| 20260502151819 | 75 | 203 | 5.2 | 8.7 | 0.00 | 0.00 | 0.00 | 37 | 1020.6 |
| 20260502150818 | 75 | 203 | 7.0 | 8.7 | 0.00 | 0.00 | 0.00 | 37 | 1020.7 |
| 20260502122839 | 77 | 270 | 0.9 | 5.2 | 0.00 | 0.00 | 0.00 | 34 | 1022.5 |
| 20260502121820 | 76 | 248 | 2.6 | 6.1 | 0.00 | 0.00 | 0.00 | 32 | 1022.6 |
| 20260502120916 | 77 | 248 | 2.6 | 7.8 | 0.00 | 0.00 | 0.00 | 32 | 1022.7 |
| 20260502115818 | 77 | 270 | 4.3 | 7.8 | 0.00 | 0.00 | 0.00 | 33 | 1022.8 |
| 20260502114900 | 77 | 0.0 | 3.5 | 0.00 | 0.00 | 0.00 | 33 | 1022.9 | |
| 20260502113818 | 76 | 225 | 0.9 | 2.6 | 0.00 | 0.00 | 0.00 | 32 | 1023.0 |
| 20260502112819 | 77 | 315 | 3.5 | 6.1 | 0.00 | 0.00 | 0.00 | 37 | 1023.1 |
| 20260502111819 | 76 | 248 | 4.3 | 9.6 | 0.00 | 0.00 | 0.00 | 33 | 1023.2 |
| 20260502110940 | 76 | 248 | 0.9 | 2.6 | 0.00 | 0.00 | 0.00 | 36 | 1023.3 |
| 20260502110645 | 76 | 0.0 | 0.9 | 0.00 | 0.00 | 0.00 | 33 | 1023.4 | |
| 20260502105651 | 76 | 293 | 0.9 | 2.6 | 0.00 | 0.00 | 0.00 | 34 | 1023.5 |
| 20260502104714 | 75 | 203 | 1.7 | 3.5 | 0.00 | 0.00 | 0.00 | 33 | 1023.6 |
| 20260502103616 | 76 | 270 | 1.7 | 4.3 | 0.00 | 0.00 | 0.00 | 33 | 1023.8 |
| 20260502102618 | 75 | 0.0 | 0.0 | 0.00 | 0.00 | 0.00 | 35 | 1023.9 | |
| 20260502101654 | 74 | 0.0 | 2.6 | 0.00 | 0.00 | 0.00 | 34 | 1024.0 | |
| 20260502100636 | 74 | 203 | 0.9 | 4.3 | 0.00 | 0.00 | 0.00 | 35 | 1024.1 |
| 20260502090615 | 72 | 0.0 | 0.0 | 0.00 | 0.00 | 0.00 | 40 | 1024.7 | |
| 20260502070654 | 61 | 0.0 | 0.0 | 0.00 | 0.00 | 0.00 | 61 | 1025.5 | |
| 20260502065618 | 59 | 0.0 | 0.0 | 0.00 | 0.00 | 0.00 | 64 | 1025.6 | |
| 20260502064616 | 58 | 0.0 | 0.0 | 0.00 | 0.00 | 0.00 | 67 | 1025.7 | |
| 20260502063616 | 56 | 0.0 | 0.0 | 0.00 | 0.00 | 0.00 | 71 | 1025.7 | |
| 20260502062617 | 54 | 0.0 | 0.0 | 0.00 | 0.00 | 0.00 | 73 | 1025.8 | |
| 20260502061618 | 53 | 0.0 | 0.0 | 0.00 | 0.00 | 0.00 | 75 | 1025.9 | |
| 20260502060654 | 51 | 0.0 | 0.0 | 0.00 | 0.00 | 0.00 | 77 | 1025.8 | |
| 20260502055618 | 51 | 0.0 | 0.0 | 0.00 | 0.00 | 0.00 | 78 | 1025.9 | |
| 20260502054638 | 49 | 0.0 | 0.0 | 0.00 | 0.00 | 0.00 | 81 | 1025.9 | |
| 20260502053654 | 48 | 0.0 | 0.0 | 0.00 | 0.00 | 0.00 | 83 | 1025.9 | |
| 20260502052616 | 47 | 0.0 | 0.0 | 0.00 | 0.00 | 0.00 | 84 | 1025.9 | |
| 20260502051616 | 46 | 0.0 | 0.0 | 0.00 | 0.00 | 0.00 | 84 | 1025.9 | |
| 20260502050638 | 45 | 0.0 | 0.0 | 0.00 | 0.00 | 0.00 | 84 | 1025.9 | |
| 20260502045618 | 45 | 0.0 | 0.0 | 0.00 | 0.00 | 0.00 | 85 | 1025.9 | |
| 20260502044654 | 44 | 0.0 | 0.0 | 0.00 | 0.00 | 0.00 | 84 | 1025.8 | |
| 20260502043618 | 44 | 0.0 | 0.0 | 0.00 | 0.00 | 0.00 | 85 | 1025.8 | |
| 20260502042619 | 44 | 293 | 0.9 | 2.6 | 0.00 | 0.00 | 0.00 | 84 | 1025.8 |
| 20260502041715 | 44 | 0.0 | 0.0 | 0.00 | 0.00 | 0.00 | 84 | 1025.9 | |
| 20260502040616 | 44 | 0.0 | 0.0 | 0.00 | 0.00 | 0.00 | 84 | 1025.9 | |
| 20260502035654 | 44 | 0.0 | 0.0 | 0.00 | 0.00 | 0.00 | 83 | 1025.9 | |
| 20260502034616 | 44 | 0.0 | 0.0 | 0.00 | 0.00 | 0.00 | 83 | 1025.9 | |
| 20260502033717 | 44 | 0.0 | 0.0 | 0.00 | 0.00 | 0.00 | 84 | 1025.8 | |
| 20260502033236 | 44 | 0.0 | 0.0 | 0.00 | 0.00 | 0.00 | 84 | 1025.8 | |
| 20260502032218 | 44 | 0.0 | 0.0 | 0.00 | 0.00 | 0.00 | 83 | 1025.8 | |
| 20260502031238 | 45 | 0.0 | 0.0 | 0.00 | 0.00 | 0.00 | 82 | 1025.8 | |
| 20260502030218 | 45 | 0.0 | 0.0 | 0.00 | 0.00 | 0.00 | 82 | 1025.7 | |
| 20260502025223 | 45 | 0.0 | 0.0 | 0.00 | 0.00 | 0.00 | 82 | 1025.7 | |
| 20260502024218 | 45 | 0.0 | 0.0 | 0.00 | 0.00 | 0.00 | 82 | 1025.8 | |
| 20260502023216 | 45 | 0.0 | 0.0 | 0.00 | 0.00 | 0.00 | 81 | 1025.9 | |
| 20260502022216 | 46 | 0.0 | 0.0 | 0.00 | 0.00 | 0.00 | 81 | 1025.9 |